User: anonymous   Login
Location: Koszewko
(53.2876°N, 14.9061°E)
Time: 01:46:40
(UTC+00:00)
Language:

Meteor 1-18 Rocket - Orbit

View from above orbital plane
View from above orbital plane
View from above satellite
View from above satellite

Ground track
Ground track

The orbit data is extracted from the following two-line orbital elements,

1 07364U 74052B   21125.48552496  .00000086  00000-0  44299-4 0  9998
2 07364  81.2341 214.6288 0050458 119.0427 241.5810 14.06038818400439
Epoch (UTC): 05 May 2021 11:39:09
Eccentricity: 0.0050458
inclination: 81.2341°
perigee height: 836 km
apogee height: 909 km
right ascension of ascending node: 214.6288°
argument of perigee: 119.0427°
revolutions per day: 14.06038818
mean anomaly at epoch: 241.5810°
orbit number at epoch: 40043

The dashed part of the orbit path shows where the satellite is in the earth's shadow,  

DLR